Location: Grange Rosano
(44.4500°N, 6.9667°E)
Time: 20:29:22
(UTC+00:00)

Cosmos 468 - Pass Details

Date: 26 May 2022
Orbit: 762 x 783 km, 74.0° (Epoch: 01 July)

Event Time Altitude Azimuth Distance (km) Brightness Sun altitude
Rises 00:16:22 0° 336° (NNW) 3,237 8.6 -23.6°
Reaches altitude 10° 00:18:46 10° 334° (NNW) 2,305 7.6 -23.5°
Maximum altitude 00:23:56 65° 253° (WSW) 838 4.5 -23.3°
Enters shadow 00:24:31 60° 217° (SW) 872 4.4 -23.2°
